Alliance, NE

1:46 PM MDT on April 23, 2018 (GMT -0600)
Alliance Municipal

Weather History for KAIA - December, 2012

Change the Weather History Date:

Thursday, December 13, 2012

  Actual Average Record
Temperature  
Mean Temperature 35 °F 23 °F  
Max Temperature 50 °F 38 °F 60 °F (2010)
Min Temperature 19 °F 8 °F -17 °F (1917)
Degree Days  
Heating Degree Days 30 42  
Month to date heating degree days 421 526  
Since 1 July heating degree days 1984 2325  
Cooling Degree Days 0 0  
Month to date cooling degree days 0 0  
Year to date cooling degree days 959 564  
Moisture  
Dew Point 16 °F    
Average Humidity 49    
Maximum Humidity 74    
Minimum Humidity 24    
Precipitation  
Precipitation 0.00 in 0.01 in 0.26 in (1984)
Month to date precipitation T 0.20  
Year to date precipitation 6.77 15.54  
Sea Level Pressure  
Sea Level Pressure 29.97 in    
Wind  
Wind Speed 8 mph (SSW)    
Max Wind Speed 15 mph    
Max Gust Speed 20 mph    
Visibility 10 miles    
Events      
T = Trace of Precipitation, MM = Missing Value Source: NWS Daily Summary

Daily Weather History Graph

Daily Weather History Graph

Search for Another Location

Airport or City:

Astronomy

Dec. 13, 2012 Rise Set
Actual Time 7:11 AM MST 4:20 PM MST
Civil Twilight 6:39 AM MST 4:51 PM MST
Nautical Twilight 6:04 AM MST 5:26 PM MST
Astronomical Twilight 5:30 AM MST 6:00 PM MST
Moon 7:21 AM MST (12/13) 5:05 PM MST (12/13)
Length of Visible Light 10h 12m
Length of Day
9h 08m
New Moon, 0% of the Moon is Illuminated
Dec 13
New Moon
Dec 19
First Quarter
Dec 28
Full
Jan 4
Last Quarter
Jan 11
New

Hourly Weather History & Observations

Time (MST) Temp. Windchill Dew Point Humidity Pressure Visibility Wind Dir Wind Speed Gust Speed Precip Events Conditions
12:53 AM 33.1 °F 24.4 °F 16.0 °F 50% 29.88 in 10.0 mi West 11.5 mph - N/A   Clear
1:53 AM 24.1 °F 15.2 °F 14.0 °F 65% 29.91 in 10.0 mi West 8.1 mph - N/A   Clear
2:53 AM 19.9 °F 13.4 °F 12.9 °F 74% 29.95 in 10.0 mi NNE 4.6 mph - N/A   Clear
3:53 AM 24.1 °F - 14.0 °F 65% 29.95 in 10.0 mi Calm Calm - N/A   Clear
4:53 AM 19.9 °F 10.1 °F 12.9 °F 74% 30.00 in 10.0 mi West 8.1 mph - N/A   Clear
5:53 AM 21.9 °F 11.0 °F 14.0 °F 72% 30.01 in 10.0 mi North 10.4 mph - N/A   Clear
6:53 AM 28.9 °F - 16.0 °F 58% 30.00 in 10.0 mi Calm Calm - N/A   Clear
7:53 AM 23.0 °F 17.0 °F 15.1 °F 72% 30.04 in 10.0 mi West 4.6 mph - N/A   Clear
8:53 AM 32.0 °F 27.5 °F 18.0 °F 56% 30.05 in 10.0 mi SW 4.6 mph - N/A   Clear
9:53 AM 39.0 °F 35.7 °F 18.0 °F 43% 30.07 in 10.0 mi SSW 4.6 mph - N/A   Clear
10:53 AM 45.0 °F 38.9 °F 17.1 °F 33% 30.04 in 10.0 mi South 12.7 mph - N/A   Clear
11:53 AM 46.0 °F 41.9 °F 16.0 °F 30% 30.00 in 10.0 mi South 8.1 mph - N/A   Clear
12:53 PM 46.9 °F - 15.1 °F 28% 29.98 in 10.0 mi SW 10.4 mph - N/A   Clear
1:53 PM 48.9 °F - 16.0 °F 27% 29.97 in 10.0 mi South 9.2 mph - N/A   Clear
2:53 PM 50.0 °F - 16.0 °F 26% 29.98 in 10.0 mi South 8.1 mph - N/A   Clear
3:53 PM 46.4 °F 40.7 °F 15.8 °F 29% 29.92 in 10.0 mi South 12.7 mph - N/A   Clear
4:53 PM 34.0 °F 26.6 °F 14.0 °F 44% 30.02 in 10.0 mi SE 9.2 mph - N/A   Clear
5:53 PM 33.8 °F 25.8 °F 15.8 °F 48% 29.92 in 10.0 mi SSE 10.4 mph - N/A   Clear
6:53 PM 34.0 °F 26.6 °F 16.0 °F 48% 29.99 in 10.0 mi SSE 9.2 mph - N/A   Clear
7:53 PM 36.0 °F 28.0 °F 16.0 °F 44% 29.98 in 10.0 mi South 11.5 mph - N/A   Clear
8:53 PM 34.0 °F 26.6 °F 17.1 °F 50% 29.96 in 10.0 mi South 9.2 mph - N/A   Clear
9:53 PM 32.0 °F 24.8 °F 17.1 °F 54% 29.95 in 10.0 mi South 8.1 mph - N/A   Clear
10:53 PM 32.0 °F 24.2 °F 17.6 °F 55% 29.90 in 10.0 mi SSE 9.2 mph - N/A   Clear
11:53 PM 32.0 °F 23.6 °F 17.1 °F 54% 29.91 in 10.0 mi SSE 10.4 mph - N/A   Clear